Hourly Weather Golanki

Today, 18 May, Tuesday

Time Temperature Precipitation Wind Pressure Humidity
00:00 +10°C° 0 mm 2 mps 738 mmHg 85%
01:00 +10°C° 0 mm 2 mps 738 mmHg 89%
02:00 +10°C° 0 mm 2 mps 738 mmHg 91%
03:00 +10°C° 0 mm 2 mps 738 mmHg 92%
04:00 +11°C° 0 mm 1 mps 737 mmHg 93%
05:00 +12°C° 0 mm 2 mps 738 mmHg 88%
06:00 +14°C° 0 mm 2 mps 738 mmHg 82%
07:00 +15°C° 0 mm 2 mps 738 mmHg 77%
08:00 +16°C° 0 mm 2 mps 738 mmHg 72%
09:00 +17°C° 0 mm 3 mps 738 mmHg 67%
10:00 +18°C° 0 mm 3 mps 738 mmHg 61%
11:00 +18°C° 0 mm 3 mps 738 mmHg 60%
12:00 +19°C° 0 mm 3 mps 738 mmHg 58%
13:00 +19°C° 0 mm 3 mps 738 mmHg 57%
14:00 +19°C° 0.2 mm 3 mps 738 mmHg 60%
15:00 +19°C° 0.2 mm 3 mps 737 mmHg 64%
16:00 +18°C° 0.2 mm 3 mps 737 mmHg 67%
17:00 +15°C° 0.2 mm 4 mps 738 mmHg 75%
18:00 +14°C° 0.2 mm 4 mps 738 mmHg 83%
19:00 +12°C° 0.2 mm 5 mps 738 mmHg 91%
20:00 +10°C° 0 mm 5 mps 739 mmHg 93%
21:00 +9°C° 0 mm 5 mps 739 mmHg 94%
22:00 +8°C° 0 mm 4 mps 739 mmHg 95%
23:00 +8°C° 0.1 mm 4 mps 739 mmHg 95%

Tomorrow, 19 May, Wednesday

Time Temperature Precipitation Wind Pressure Humidity
00:00 +8°C° 0.1 mm 4 mps 739 mmHg 95%
01:00 +8°C° 0.1 mm 4 mps 739 mmHg 95%
02:00 +8°C° 0.2 mm 4 mps 739 mmHg 95%
03:00 +8°C° 0.2 mm 4 mps 740 mmHg 95%
04:00 +8°C° 0.2 mm 4 mps 740 mmHg 95%
05:00 +8°C° 0.6 mm 4 mps 740 mmHg 94%
06:00 +8°C° 0.6 mm 5 mps 741 mmHg 94%
07:00 +8°C° 0.6 mm 5 mps 741 mmHg 94%
08:00 +10°C° 0.4 mm 4 mps 741 mmHg 90%
09:00 +11°C° 0.4 mm 4 mps 742 mmHg 86%
10:00 +12°C° 0.4 mm 4 mps 742 mmHg 82%
11:00 +13°C° 0.1 mm 4 mps 742 mmHg 76%
12:00 +14°C° 0.1 mm 4 mps 742 mmHg 69%
13:00 +15°C° 0.1 mm 4 mps 742 mmHg 62%
14:00 +15°C° 0.4 mm 4 mps 742 mmHg 67%
15:00 +14°C° 0.4 mm 4 mps 742 mmHg 73%
16:00 +14°C° 0.4 mm 4 mps 743 mmHg 78%
17:00 +13°C° 0.1 mm 4 mps 743 mmHg 81%
18:00 +12°C° 0.1 mm 4 mps 743 mmHg 84%
19:00 +11°C° 0.1 mm 3 mps 744 mmHg 87%
20:00 +9°C° 0 mm 3 mps 744 mmHg 89%
21:00 +8°C° 0 mm 3 mps 744 mmHg 91%
22:00 +7°C° 0 mm 3 mps 744 mmHg 94%
23:00 +5°C° 0 mm 3 mps 744 mmHg 93%

Day after tomorrow, 20 May, Thursday

Time Temperature Precipitation Wind Pressure Humidity
00:00 +4°C° 0 mm 3 mps 744 mmHg 93%
01:00 +5°C° 0 mm 2 mps 745 mmHg 93%
02:00 +4°C° 0 mm 2 mps 745 mmHg 94%
03:00 +4°C° 0 mm 2 mps 745 mmHg 94%
04:00 +3°C° 0 mm 3 mps 745 mmHg 94%
05:00 +5°C° 0 mm 3 mps 745 mmHg 88%
06:00 +8°C° 0 mm 3 mps 745 mmHg 82%
07:00 +10°C° 0 mm 4 mps 745 mmHg 76%
08:00 +11°C° 0 mm 4 mps 745 mmHg 71%
09:00 +13°C° 0 mm 5 mps 745 mmHg 66%
10:00 +14°C° 0 mm 5 mps 745 mmHg 61%
11:00 +15°C° 0.1 mm 6 mps 745 mmHg 60%
12:00 +15°C° 0.1 mm 6 mps 745 mmHg 59%
13:00 +15°C° 0.1 mm 6 mps 745 mmHg 58%
14:00 +15°C° 0 mm 6 mps 745 mmHg 60%
15:00 +15°C° 0 mm 6 mps 745 mmHg 61%
16:00 +15°C° 0 mm 6 mps 745 mmHg 63%
17:00 +13°C° 0 mm 6 mps 746 mmHg 67%
18:00 +11°C° 0 mm 6 mps 746 mmHg 72%
19:00 +9°C° 0 mm 5 mps 746 mmHg 76%
20:00 +8°C° 0 mm 5 mps 746 mmHg 77%
21:00 +7°C° 0 mm 5 mps 746 mmHg 77%
22:00 +6°C° 0 mm 5 mps 747 mmHg 78%
23:00 +5°C° 0 mm 4 mps 747 mmHg 81%

21 May, Friday

Time Temperature Precipitation Wind Pressure Humidity
00:00 +4°C° 0 mm 4 mps 747 mmHg 84%
01:00 +3°C° 0 mm 3 mps 747 mmHg 87%
02:00 +3°C° 0 mm 3 mps 747 mmHg 89%
03:00 +2°C° 0 mm 3 mps 747 mmHg 91%
04:00 +2°C° 0 mm 3 mps 747 mmHg 93%
05:00 +4°C° 0 mm 4 mps 747 mmHg 85%
06:00 +6°C° 0 mm 5 mps 747 mmHg 78%
07:00 +8°C° 0 mm 5 mps 747 mmHg 70%
08:00 +9°C° 0 mm 5 mps 747 mmHg 64%
09:00 +10°C° 0 mm 5 mps 747 mmHg 57%
10:00 +12°C° 0 mm 5 mps 747 mmHg 51%
11:00 +13°C° 0 mm 5 mps 747 mmHg 49%
12:00 +13°C° 0 mm 5 mps 747 mmHg 48%
13:00 +14°C° 0 mm 5 mps 747 mmHg 46%
14:00 +13°C° 0 mm 4 mps 746 mmHg 49%
15:00 +13°C° 0 mm 4 mps 746 mmHg 52%
16:00 +12°C° 0 mm 3 mps 746 mmHg 55%
17:00 +12°C° 0 mm 2 mps 746 mmHg 60%
18:00 +10°C° 0 mm 2 mps 746 mmHg 66%
19:00 +9°C° 0 mm 2 mps 746 mmHg 71%
20:00 +8°C° 0 mm 2 mps 746 mmHg 74%
21:00 +7°C° 0 mm 2 mps 746 mmHg 78%
22:00 +6°C° 0 mm 2 mps 746 mmHg 82%
23:00 +5°C° 0 mm 2 mps 746 mmHg 83%

22 May, Saturday

Time Temperature Precipitation Wind Pressure Humidity
00:00 +4°C° 0 mm 3 mps 745 mmHg 84%
01:00 +4°C° 0 mm 3 mps 745 mmHg 86%
02:00 +5°C° 0 mm 3 mps 745 mmHg 85%
03:00 +6°C° 0 mm 2 mps 745 mmHg 85%
04:00 +7°C° 0 mm 2 mps 745 mmHg 85%
05:00 +8°C° 0.1 mm 2 mps 745 mmHg 84%
06:00 +9°C° 0.1 mm 2 mps 744 mmHg 83%
07:00 +10°C° 0.1 mm 2 mps 744 mmHg 82%
08:00 +12°C° 0 mm 3 mps 744 mmHg 76%
09:00 +14°C° 0 mm 5 mps 744 mmHg 69%
10:00 +16°C° 0 mm 6 mps 743 mmHg 62%
11:00 +17°C° 0.1 mm 6 mps 743 mmHg 60%
12:00 +17°C° 0.1 mm 6 mps 743 mmHg 59%
13:00 +19°C° 0.1 mm 6 mps 743 mmHg 57%
14:00 +19°C° 0.2 mm 6 mps 743 mmHg 60%
15:00 +19°C° 0.2 mm 5 mps 743 mmHg 63%
16:00 +17°C° 0.2 mm 5 mps 742 mmHg 65%
17:00 +16°C° 0.5 mm 5 mps 742 mmHg 73%
18:00 +14°C° 0.5 mm 5 mps 742 mmHg 80%
19:00 +13°C° 0.5 mm 5 mps 743 mmHg 88%
20:00 +12°C° 1.2 mm 4 mps 743 mmHg 90%
21:00 +11°C° 1.2 mm 3 mps 743 mmHg 93%
22:00 +12°C° 1.2 mm 1 mps 743 mmHg 96%
23:00 +10°C° 0.3 mm 2 mps 743 mmHg 96%

23 May, Sunday

Time Temperature Precipitation Wind Pressure Humidity
00:00 +10°C° 0.3 mm 2 mps 743 mmHg 96%
01:00 +10°C° 0.3 mm 2 mps 743 mmHg 97%
02:00 +10°C° 0.7 mm 2 mps 743 mmHg 97%
03:00 +10°C° 0.7 mm 2 mps 743 mmHg 97%
04:00 +11°C° 0.7 mm 1 mps 743 mmHg 98%
05:00 +11°C° 1.2 mm 1 mps 743 mmHg 96%
06:00 +10°C° 1.2 mm 2 mps 743 mmHg 94%
07:00 +10°C° 1.2 mm 2 mps 743 mmHg 92%
08:00 +12°C° 0.7 mm 2 mps 743 mmHg 87%
09:00 +13°C° 0.7 mm 1 mps 744 mmHg 82%
10:00 +13°C° 0.7 mm 1 mps 744 mmHg 77%
11:00 +15°C° 0.2 mm 2 mps 744 mmHg 70%
12:00 +16°C° 0.2 mm 3 mps 744 mmHg 63%
13:00 +17°C° 0.2 mm 4 mps 744 mmHg 57%
14:00 +17°C° 0.1 mm 4 mps 744 mmHg 58%
15:00 +17°C° 0.1 mm 4 mps 744 mmHg 59%
16:00 +17°C° 0.1 mm 4 mps 744 mmHg 61%
17:00 +16°C° 0.2 mm 3 mps 744 mmHg 69%
18:00 +13°C° 0.2 mm 3 mps 745 mmHg 77%
19:00 +13°C° 0.2 mm 2 mps 745 mmHg 85%
20:00 +12°C° 0 mm 2 mps 745 mmHg 87%
21:00 +10°C° 0 mm 2 mps 746 mmHg 89%
22:00 +9°C° 0 mm 2 mps 746 mmHg 91%
23:00 +9°C° 0 mm 2 mps 746 mmHg 91%
Show more